Location: Northcutt
(34.7304°N, 84.4305°W)
Time: 16:22:22
(UTC+00:00)

SR - Pass Details

Date: 11 October 2022
Orbit: 577 x 874 km, 66.7° (Epoch: 05 December)

Event Time Altitude Azimuth Distance (km) Brightness Sun altitude
Rises 23:04:11 0° 182° (S) 3,391 ? 0.0°
Reaches altitude 10° 23:06:47 10° 173° (S) 2,485 ? -0.6°
Maximum altitude 23:12:02 36° 109° (ESE) 1,352 ? -1.6°
Drops below altitude 10° 23:17:20 10° 45° (NE) 2,523 ? -2.7°
Sets 23:19:59 0° 37° (NE) 3,450 ? -3.3°
